STARLINK-36360

Last updated on Sun Apr 12 2026 00:02:09 GMT+0000 (Coordinated Universal Time)

1 68402U 26063Y 26101.48278514 .00164466 00000+0 84055-3 0 9997 2 68402 97.2827 242.8767 0001420 109.6822 250.4599 15.80886889 2803
UTC large
Height (km)
Speed (km/s)
/
Latitude / Longitude
Inclination (degrees)
Orbital Period (minutes)
Azimuth
Elevation
Range (km)
Doppler Factor

Next 0 passes for location: London (51.5072 / 0.1276)

Sorry there are no passes over London.
STARLINK-36360